Cadillac, MI

9:53 AM EDT on August 26, 2016 (GMT -0400)
Wexford County

Weather History for KCAD - September, 2013

Change the Weather History Date:

Saturday, September 28, 2013

  Actual Average Record
Temperature  
Mean Temperature 65 °F -  
Max Temperature 76 °F 62 °F 79 °F (1952)
Min Temperature 54 °F 39 °F 19 °F (1989)
Growing Degree Days 15 (Base 50)    
Moisture  
Dew Point 52 °F    
Average Humidity 66    
Maximum Humidity 89    
Minimum Humidity 40    
Precipitation  
Precipitation 0.00 in - - ()
Sea Level Pressure  
Sea Level Pressure 30.07 in    
Wind  
Wind Speed 8 mph (SSE)    
Max Wind Speed 17 mph    
Max Gust Speed 24 mph    
Visibility 10 miles    
Events      
Averages and records for this station are not official NWS values.
T = Trace of Precipitation, MM = Missing Value Source: NWS Daily Summary

Daily Weather History Graph

Daily Weather History Graph

Search for Another Location

Airport or City:

Trip Planner

Search our weather history database for the weather conditions in past years. The results will help you decide how hot, cold, wet, or windy it might be!

Date:

Astronomy

Sep. 28, 2013 Rise Set
Actual Time 7:36 AM EDT 7:27 PM EDT
Civil Twilight 7:07 AM EDT 7:56 PM EDT
Nautical Twilight 6:33 AM EDT 8:29 PM EDT
Astronomical Twilight 5:59 AM EDT 9:04 PM EDT
Moon 1:11 AM EDT (9/28) 3:56 PM EDT (9/28)
Length of Visible Light 12h 49m
Length of Day
11h 51m
Last Quarter, 36% of the Moon is Illuminated
Sep 28
Last Quarter
Oct 4
New
Oct 11
First Quarter
Oct 18
Full
Oct 26
Last Quarter

Hourly Weather History & Observations

Time (EDT) Temp. Dew Point Humidity Pressure Visibility Wind Dir Wind Speed Gust Speed Precip Events Conditions
12:14 AM 57.6 °F 50.9 °F 78% 30.17 in 10.0 mi ESE 5.8 mph - N/A   Clear
12:35 AM 56.5 °F 50.7 °F 81% 30.17 in 10.0 mi East 4.6 mph - N/A   Clear
12:55 AM 56.5 °F 50.9 °F 82% 30.17 in 10.0 mi SE 4.6 mph - N/A   Clear
1:14 AM 56.5 °F 50.9 °F 82% 30.17 in 10.0 mi SE 5.8 mph - N/A   Clear
1:35 AM 57.9 °F 51.4 °F 79% 30.16 in 10.0 mi SE 6.9 mph - N/A   Clear
1:54 AM 57.0 °F 50.7 °F 79% 30.16 in 10.0 mi SE 8.1 mph - N/A   Clear
2:14 AM 56.7 °F 50.2 °F 79% 30.16 in 10.0 mi SE 5.8 mph - N/A   Clear
2:35 AM 56.5 °F 50.7 °F 81% 30.16 in 10.0 mi SE 6.9 mph - N/A   Clear
2:55 AM 56.5 °F 51.1 °F 82% 30.16 in 10.0 mi SE 3.5 mph - N/A   Clear
3:14 AM 54.1 °F 49.6 °F 85% 30.17 in 10.0 mi SSE 3.5 mph - N/A   Clear
3:35 AM 56.5 °F 52.0 °F 85% 30.16 in 10.0 mi SSE 5.8 mph - N/A   Clear
3:55 AM 56.5 °F 52.0 °F 85% 30.16 in 10.0 mi SSE 3.5 mph - N/A   Clear
4:14 AM 56.5 °F 52.3 °F 86% 30.16 in 10.0 mi SSE 3.5 mph - N/A   Clear
4:35 AM 56.5 °F 52.3 °F 86% 30.16 in 10.0 mi SSE 4.6 mph - N/A   Clear
4:54 AM 56.5 °F 51.8 °F 84% 30.17 in 10.0 mi SSE 6.9 mph - N/A   Clear
5:15 AM 56.5 °F 51.1 °F 82% 30.17 in 10.0 mi SSE 6.9 mph - N/A   Clear
5:35 AM 56.5 °F 50.9 °F 82% 30.16 in 10.0 mi SSE 4.6 mph - N/A   Clear
5:54 AM 56.5 °F 51.1 °F 82% 30.16 in 10.0 mi SSE 6.9 mph - N/A   Clear
6:15 AM 56.5 °F 51.8 °F 84% 30.16 in 10.0 mi SSE 6.9 mph - N/A   Clear
6:35 AM 56.5 °F 52.2 °F 85% 30.16 in 10.0 mi SSE 5.8 mph - N/A   Clear
6:54 AM 56.5 °F 52.9 °F 88% 30.17 in 10.0 mi SE 8.1 mph - N/A   Scattered Clouds
7:15 AM 56.5 °F 53.2 °F 89% 30.17 in 7.0 mi SSE 6.9 mph - N/A   Overcast
7:35 AM 56.5 °F 52.9 °F 88% 30.16 in 10.0 mi SE 8.1 mph 17.3 mph N/A   Overcast
7:54 AM 56.5 °F 52.7 °F 87% 30.16 in 10.0 mi SSE 6.9 mph - N/A   Overcast
8:15 AM 56.5 °F 52.7 °F 87% 30.16 in 10.0 mi SSE 8.1 mph - N/A   Overcast
8:35 AM 56.5 °F 52.7 °F 87% 30.16 in 10.0 mi SSE 8.1 mph - N/A   Overcast
8:54 AM 56.7 °F 52.9 °F 87% 30.16 in 10.0 mi SE 8.1 mph - N/A   Overcast
9:15 AM 57.9 °F 53.8 °F 86% 30.15 in 10.0 mi SSE 8.1 mph - N/A   Overcast
9:35 AM 59.0 °F 54.7 °F 86% 30.16 in 10.0 mi SE 4.6 mph - N/A   Overcast
9:54 AM 59.0 °F 53.8 °F 83% 30.16 in 10.0 mi South 8.1 mph - N/A   Overcast
10:15 AM 59.0 °F 53.8 °F 83% 30.16 in 10.0 mi South 11.5 mph - N/A   Mostly Cloudy
10:35 AM 61.7 °F 54.3 °F 77% 30.14 in 10.0 mi SSE 10.4 mph - N/A   Scattered Clouds
10:54 AM 62.8 °F 53.8 °F 72% 30.13 in 10.0 mi SE 9.2 mph - N/A   Clear
11:15 AM 64.0 °F 54.1 °F 70% 30.13 in 10.0 mi SE 6.9 mph - N/A   Clear
11:34 AM 64.8 °F 54.0 °F 68% 30.12 in 10.0 mi SSE 10.4 mph - N/A   Clear
11:55 AM 66.6 °F 55.0 °F 66% 30.12 in 10.0 mi SSE 8.1 mph - N/A   Clear
12:15 PM 69.1 °F 55.8 °F 62% 30.11 in 10.0 mi SSE 8.1 mph - N/A   Clear
12:34 PM 69.1 °F 55.2 °F 61% 30.10 in 10.0 mi SSE 6.9 mph - N/A   Clear
12:55 PM 71.6 °F 55.9 °F 58% 30.09 in 10.0 mi ESE 10.4 mph - N/A   Clear
1:15 PM 71.6 °F 54.7 °F 55% 30.08 in 10.0 mi SE 10.4 mph - N/A   Clear
1:34 PM 73.2 °F 54.3 °F 51% 30.07 in 10.0 mi SE 12.7 mph 16.1 mph N/A   Clear
1:55 PM 74.3 °F 55.0 °F 51% 30.06 in 10.0 mi SE 11.5 mph 17.3 mph N/A   Clear
2:15 PM 75.7 °F 55.0 °F 49% 30.05 in 10.0 mi SSE 11.5 mph 17.3 mph N/A   Clear
2:34 PM 76.6 °F 55.2 °F 47% 30.04 in 10.0 mi SSE 11.5 mph - N/A   Clear
2:55 PM 76.6 °F 53.6 °F 45% 30.03 in 10.0 mi SSE 13.8 mph 19.6 mph N/A   Clear
3:15 PM 76.6 °F 53.1 °F 44% 30.02 in 10.0 mi SSE 13.8 mph 20.7 mph N/A   Clear
3:34 PM 76.6 °F 51.3 °F 41% 30.01 in 10.0 mi SSE 13.8 mph - N/A   Clear
3:55 PM 76.6 °F 51.6 °F 42% 30.00 in 10.0 mi SSE 12.7 mph 21.9 mph N/A   Clear
4:15 PM 76.6 °F 51.6 °F 42% 30.00 in 10.0 mi SSE 15.0 mph 19.6 mph N/A   Clear
4:34 PM 76.6 °F 51.6 °F 42% 29.99 in 10.0 mi South 12.7 mph 21.9 mph N/A   Clear
4:55 PM 76.6 °F 50.4 °F 40% 29.98 in 10.0 mi South 17.3 mph 23.0 mph N/A   Clear
5:15 PM 75.2 °F 51.4 °F 43% 29.98 in 10.0 mi South 13.8 mph 24.2 mph N/A   Clear
5:34 PM 74.3 °F 50.7 °F 43% 29.98 in 10.0 mi South 11.5 mph 18.4 mph N/A   Clear
5:55 PM 76.6 °F 53.1 °F 44% 29.98 in 10.0 mi SSE 11.5 mph 17.3 mph N/A   Clear
6:14 PM 76.6 °F 53.2 °F 44% 29.98 in 10.0 mi South 10.4 mph 20.7 mph N/A   Clear
6:35 PM 74.3 °F 50.9 °F 44% 29.98 in 10.0 mi South 12.7 mph 18.4 mph N/A   Clear
6:55 PM 73.0 °F 50.4 °F 45% 29.98 in 10.0 mi South 11.5 mph 24.2 mph N/A   Clear
7:14 PM 71.6 °F 51.1 °F 48% 29.98 in 10.0 mi South 9.2 mph - N/A   Clear
7:35 PM 71.6 °F 52.2 °F 50% 29.97 in 10.0 mi SSE 8.1 mph - N/A   Clear
7:55 PM 71.6 °F 53.6 °F 53% 29.96 in 10.0 mi SSE 6.9 mph - N/A   Clear
8:14 PM 69.1 °F 52.7 °F 56% 29.95 in 10.0 mi SSE 6.9 mph - N/A   Clear
8:35 PM 69.1 °F 52.9 °F 56% 29.95 in 10.0 mi SSE 8.1 mph - N/A   Clear
8:55 PM 69.1 °F 51.4 °F 53% 29.95 in 10.0 mi SSE 9.2 mph - N/A   Clear
9:14 PM 69.1 °F 51.4 °F 53% 29.94 in 10.0 mi SSE 10.4 mph - N/A   Clear
9:35 PM 69.1 °F 50.9 °F 52% 29.94 in 10.0 mi SSE 11.5 mph 17.3 mph N/A   Clear
9:55 PM 69.1 °F 50.9 °F 52% 29.93 in 10.0 mi SSE 13.8 mph 17.3 mph N/A   Clear
10:14 PM 69.1 °F 50.9 °F 52% 29.93 in 10.0 mi South 12.7 mph 16.1 mph N/A   Clear
10:35 PM 69.1 °F 50.2 °F 51% 29.93 in 10.0 mi SSE 10.4 mph 17.3 mph N/A   Mostly Cloudy
10:54 PM 71.6 °F 52.3 °F 51% 29.93 in 10.0 mi South 10.4 mph 17.3 mph N/A   Overcast
11:15 PM 71.6 °F 52.0 °F 50% 29.92 in 10.0 mi South 10.4 mph 16.1 mph N/A   Overcast
11:35 PM 71.6 °F 51.8 °F 50% 29.91 in 10.0 mi South 12.7 mph 20.7 mph N/A   Overcast
11:54 PM 71.6 °F 52.2 °F 50% 29.91 in 10.0 mi South 10.4 mph 18.4 mph N/A   Overcast